User: anonymous   Login
Location: Gombori
(14.9797°N, 2.9419°W)
Time: 16:13:24
(UTC+00:00)
Language:

Cosmos 1092 Rocket - Orbit

View from above orbital plane
View from above orbital plane
View from above satellite
View from above satellite

Ground track
Ground track

The orbit data is extracted from the following two-line orbital elements,

1 11327U 79030B   21296.99660076  .00000066  00000-0  51058-4 0  9991
2 11327  82.9535 195.4583 0028932  50.7124  77.9468 13.76960929137921
Epoch (UTC): 23 October 2021 23:55:06
Eccentricity: 0.0028932
inclination: 82.9535°
perigee height: 953 km
apogee height: 996 km
right ascension of ascending node: 195.4583°
argument of perigee: 50.7124°
revolutions per day: 13.76960929
mean anomaly at epoch: 77.9468°
orbit number at epoch: 13792

The dashed part of the orbit path shows where the satellite is in the earth's shadow,  

DLR